| time (UTC) | temp C | wind direction | speed KPH | gust KPH | rain 1hr cm | rain 24hr cm | rain mn cm | humidity % | barometer mb |
| 20260506033025 | 11 | 29 | 0.0 | 1.6 | 0.58 | 1.93 | 0.91 | 94 | 1010.2 |
| 20260506031516 | 11 | 29 | 0.0 | 3.2 | 0.48 | 1.75 | 0.76 | 94 | 1010.3 |
| 20260506030005 | 11 | 29 | 0.0 | 1.6 | 0.36 | 1.57 | 0.58 | 94 | 1010.5 |
| 20260506024557 | 11 | 29 | 0.0 | 0.0 | 0.30 | 1.42 | 0.43 | 94 | 1010.7 |
| 20260506023106 | 11 | 29 | 0.0 | 3.2 | 0.33 | 1.35 | 0.33 | 94 | 1010.8 |
| 20260506021536 | 11 | 29 | 0.0 | 1.6 | 0.25 | 1.27 | 0.28 | 94 | 1010.9 |
| 20260506020026 | 11 | 29 | 0.0 | 0.0 | 0.20 | 1.22 | 0.23 | 94 | 1010.9 |
| 20260506014525 | 11 | 29 | 0.0 | 0.0 | 0.13 | 1.12 | 0.13 | 94 | 1010.9 |
| 20260506013005 | 11 | 29 | 0.0 | 0.0 | 0.03 | 1.02 | 0.03 | 94 | 1011.0 |
| 20260506011617 | 11 | 29 | 0.0 | 0.0 | 0.03 | 1.02 | 0.03 | 94 | 1011.2 |
| 20260506010054 | 11 | 29 | 0.0 | 1.6 | 0.03 | 1.02 | 0.03 | 94 | 1011.4 |
| 20260506004557 | 11 | 29 | 0.0 | 4.8 | 0.00 | 0.99 | 0.00 | 94 | 1011.4 |
| 20260506003038 | 11 | 29 | 0.0 | 3.2 | 0.00 | 0.99 | 0.00 | 94 | 1011.5 |
| 20260506001515 | 11 | 29 | 0.0 | 3.2 | 0.00 | 0.99 | 0.00 | 94 | 1011.7 |
| 20260506000004 | 11 | 29 | 0.0 | 3.2 | 0.00 | 0.99 | 0.00 | 94 | 1012.0 |
| 20260505234630 | 11 | 29 | 0.0 | 0.0 | 0.00 | 0.99 | 0.00 | 94 | 1012.0 |
| 20260505233048 | 11 | 29 | 0.0 | 3.2 | 0.00 | 0.99 | 0.00 | 94 | 1012.3 |
| 20260505231536 | 11 | 29 | 0.0 | 0.0 | 0.00 | 0.99 | 0.00 | 94 | 1012.4 |
| 20260505230018 | 11 | 29 | 0.0 | 3.2 | 0.00 | 0.99 | 0.00 | 94 | 1012.3 |
| 20260505224509 | 11 | 29 | 1.6 | 3.2 | 0.00 | 0.99 | 0.00 | 93 | 1012.4 |
| 20260505223101 | 11 | 29 | 0.0 | 1.6 | 0.00 | 0.99 | 0.00 | 93 | 1012.4 |
| 20260505221550 | 11 | 29 | 0.0 | 3.2 | 0.03 | 0.99 | 0.00 | 93 | 1012.6 |
| 20260505220055 | 11 | 29 | 0.0 | 3.2 | 0.05 | 0.99 | 0.99 | 93 | 1012.7 |
| 20260505214536 | 11 | 29 | 1.6 | 3.2 | 0.05 | 0.99 | 0.99 | 93 | 1012.8 |
| 20260505213019 | 11 | 29 | 0.0 | 3.2 | 0.05 | 0.99 | 0.99 | 93 | 1013.1 |
| 20260505211509 | 11 | 29 | 0.0 | 3.2 | 0.05 | 0.99 | 0.99 | 93 | 1013.2 |
| 20260505204551 | 12 | 29 | 0.0 | 1.6 | 0.00 | 0.94 | 0.94 | 92 | 1013.3 |
| 20260505203041 | 11 | 29 | 0.0 | 3.2 | 0.00 | 0.94 | 0.94 | 92 | 1013.2 |
| 20260505201531 | 11 | 29 | 0.0 | 0.0 | 0.00 | 0.94 | 0.94 | 92 | 1013.2 |
| 20260505200018 | 11 | 29 | 1.6 | 4.8 | 0.00 | 0.94 | 0.94 | 92 | 1013.2 |
| 20260505194520 | 11 | 29 | 0.0 | 6.4 | 0.00 | 0.94 | 0.94 | 92 | 1013.2 |
| 20260505193059 | 11 | 29 | 1.6 | 4.8 | 0.00 | 0.94 | 0.94 | 92 | 1013.1 |
| 20260505191555 | 11 | 29 | 0.0 | 3.2 | 0.00 | 0.94 | 0.94 | 92 | 1013.0 |
| 20260505190032 | 11 | 29 | 0.0 | 3.2 | 0.00 | 0.94 | 0.94 | 91 | 1012.9 |
| 20260505184519 | 11 | 29 | 0.0 | 4.8 | 0.03 | 0.94 | 0.94 | 91 | 1012.8 |
| 20260505183007 | 11 | 29 | 1.6 | 9.7 | 0.03 | 0.94 | 0.94 | 91 | 1012.7 |
| 20260505181554 | 11 | 26 | 0.0 | 4.8 | 0.03 | 0.94 | 0.94 | 91 | 1012.7 |
| 20260505180052 | 12 | 30 | 1.6 | 6.4 | 0.03 | 0.94 | 0.94 | 90 | 1012.7 |
| 20260505174540 | 12 | 29 | 1.6 | 9.7 | 0.00 | 0.91 | 0.91 | 90 | 1012.9 |
| 20260505173022 | 12 | 104 | 0.0 | 4.8 | 0.00 | 0.91 | 0.91 | 89 | 1012.8 |
| 20260505171515 | 12 | 36 | 0.0 | 6.4 | 0.00 | 0.91 | 0.91 | 88 | 1012.9 |
| 20260505170001 | 12 | 36 | 0.0 | 8.0 | 0.00 | 0.91 | 0.91 | 88 | 1012.9 |
| 20260505164553 | 12 | 48 | 0.0 | 4.8 | 0.00 | 0.91 | 0.91 | 88 | 1012.9 |
| 20260505163044 | 12 | 40 | 0.0 | 4.8 | 0.00 | 0.91 | 0.91 | 88 | 1012.8 |
| 20260505161531 | 12 | 38 | 3.2 | 11.3 | 0.00 | 0.91 | 0.91 | 87 | 1012.9 |
| 20260505153100 | 12 | 27 | 0.0 | 6.4 | 0.00 | 0.91 | 0.91 | 87 | 1012.9 |
| 20260505151552 | 12 | 26 | 0.0 | 4.8 | 0.00 | 0.91 | 0.91 | 87 | 1012.9 |
| 20260505124600 | 12 | 21 | 0.0 | 6.4 | 0.00 | 0.91 | 0.91 | 87 | 1013.5 |
| 20260505123106 | 13 | 21 | 0.0 | 4.8 | 0.00 | 0.91 | 0.91 | 86 | 1013.6 |
| 20260505121537 | 13 | 21 | 0.0 | 4.8 | 0.00 | 0.91 | 0.91 | 86 | 1013.6 |
| 20260505120029 | 12 | 21 | 1.6 | 6.4 | 0.00 | 0.91 | 0.91 | 85 | 1013.6 |
| 20260505114515 | 13 | 314 | 0.0 | 3.2 | 0.00 | 0.91 | 0.91 | 86 | 1013.6 |
| 20260505113005 | 13 | 31 | 0.0 | 4.8 | 0.00 | 0.91 | 0.91 | 87 | 1013.6 |
| 20260505111606 | 13 | 36 | 0.0 | 6.4 | 0.00 | 0.91 | 0.91 | 87 | 1013.7 |
| 20260505101514 | 12 | 42 | 0.0 | 11.3 | 0.05 | 0.91 | 0.91 | 91 | 1014.0 |
| 20260505100001 | 12 | 43 | 0.0 | 11.3 | 0.05 | 0.91 | 0.91 | 91 | 1013.9 |
| 20260505094551 | 12 | 42 | 3.2 | 12.9 | 0.13 | 0.91 | 0.91 | 92 | 1013.8 |
| 20260505093038 | 11 | 31 | 1.6 | 14.5 | 0.18 | 0.89 | 0.89 | 92 | 1013.7 |
| 20260505091532 | 11 | 46 | 1.6 | 8.0 | 0.33 | 0.89 | 0.89 | 92 | 1013.9 |
| 20260505090014 | 11 | 19 | 0.0 | 11.3 | 0.48 | 0.86 | 0.86 | 92 | 1013.7 |
| 20260505084507 | 11 | 324 | 0.0 | 4.8 | 0.53 | 0.79 | 0.79 | 92 | 1013.8 |
| 20260505083107 | 11 | 40 | 1.6 | 8.0 | 0.53 | 0.71 | 0.71 | 91 | 1013.9 |
| 20260505081552 | 11 | 52 | 0.0 | 11.3 | 0.46 | 0.56 | 0.56 | 90 | 1013.8 |
| 20260505080038 | 11 | 45 | 4.8 | 12.9 | 0.33 | 0.38 | 0.38 | 89 | 1013.7 |
| 20260505074519 | 12 | 37 | 0.0 | 3.2 | 0.23 | 0.25 | 0.25 | 89 | 1013.7 |
| 20260505073014 | 12 | 34 | 1.6 | 6.4 | 0.18 | 0.18 | 0.18 | 88 | 1013.6 |
| 20260505071604 | 12 | 35 | 1.6 | 6.4 | 0.10 | 0.10 | 0.10 | 87 | 1013.6 |
| 20260505070052 | 12 | 40 | 0.0 | 3.2 | 0.05 | 0.05 | 0.05 | 85 | 1013.6 |
| 20260505064553 | 12 | 36 | 3.2 | 6.4 | 0.03 | 0.03 | 0.03 | 83 | 1013.6 |
| 20260505063028 | 13 | 34 | 4.8 | 12.9 | 0.00 | 0.00 | 0.00 | 81 | 1013.6 |
| 20260505061529 | 13 | 44 | 0.0 | 6.4 | 0.00 | 0.00 | 0.00 | 79 | 1013.5 |
| 20260505060006 | 13 | 346 | 1.6 | 12.9 | 0.00 | 0.00 | 0.00 | 78 | 1013.3 |
| 20260505054606 | 13 | 25 | 0.0 | 6.4 | 0.00 | 0.00 | 0.00 | 76 | 1013.2 |
| 20260505053055 | 13 | 54 | 3.2 | 14.5 | 0.00 | 0.00 | 0.00 | 73 | 1013.0 |
| 20260505051537 | 13 | 41 | 3.2 | 11.3 | 0.00 | 0.00 | 0.00 | 71 | 1012.6 |
| 20260505041613 | 12 | 154 | 0.0 | 3.2 | 0.00 | 0.00 | 0.00 | 76 | 1012.5 |
| 20260505040047 | 12 | 154 | 0.0 | 0.0 | 0.00 | 0.00 | 0.00 | 76 | 1012.3 |
| 20260505034535 | 12 | 154 | 0.0 | 0.0 | 0.00 | 0.00 | 0.00 | 75 | 1012.3 |